Location: Unspecified
(0.0000°N, 0.0000°E)
Time: 06:40:35
(UTC+00:00)

FALCONSAT 3 - Visible Passes

Search period start: 23 June 2018 00:00
Search period end: 03 July 2018 00:00
Orbit: 461 x 463 km, 35.4° (Epoch: 22 June)

Date Brightness Start Highest point End Pass type
(mag) Time Alt. Az. Time Alt. Az. Time Alt. Az.
24 Jun ? 19:31:25 10° SSW 19:31:53 13° SSW 19:31:53 13° SSW visible
25 Jun ? 18:56:30 10° SSW 18:59:31 24° SE 19:00:17 22° ESE visible
26 Jun ? 20:00:05 10° W 20:02:53 29° NW 20:02:53 29° NW visible
27 Jun ? 19:24:52 10° WSW 19:28:16 36° NW 19:31:39 10° NNE visible
28 Jun ? 05:29:19 10° N 05:31:45 17° NE 05:34:12 10° E visible
28 Jun ? 18:49:41 10° WSW 18:53:10 42° NW 18:56:39 10° NE visible
29 Jun ? 04:54:32 10° N 04:56:39 15° NE 04:58:47 10° ENE visible
30 Jun ? 04:19:49 10° N 04:21:34 13° NE 04:23:17 10° ENE visible
01 Jul ? 03:45:44 11° NNE 03:46:27 11° NE 03:47:36 10° NE visible
01 Jul ? 05:21:48 10° WNW 05:25:24 64° SW 05:29:01 10° SE visible
02 Jul ? 04:48:31 28° WNW 04:50:18 76° SW 04:53:56 10° SE visible
